Theta_e
313 310 310 310 309 308 309 310 313 312 313 313 314 314 315 314 315 319 319 321 322 322
312 312 310 310 310 309 310 310 311 312 312 312 313 313 314 312 314 315 319 320 322 322
311 311 310 309 309 310 310 311 311 311 311 311 311 310 310 311 313 314 315 317 320 322
310 309 309 309 309 310 310 310 309 309 309 308 307 308 308 309 310 310 313 316 320 321
309 308 308 309 309 310 309 310 310 309 307 306 306 306 306 306 307 308 310 313 315 317
307 307 308 309 309 309 309 309 309 308 306 306 306 305 306 306 306 306 308 312 314 317
306 307 307 308 308 309 309 308 309 309 309 308 308 308 308 306 307 307 307 311 314 316
307 307 307 307 307 308 308 308 308 307 308 307 307 308 307 306 306 307 306 307 312 316
305 306 306 306 306 306 306 307 307 306 306 305 305 304 304 305 305 305 305 305 308 313
303 303 303 303 303 303 304 306 305 307 307 306 307 303 302 302 304 304 304 304 304 310
301 299 300 300 301 301 302 303 304 305 307 308 309 304 301 301 303 303 304 305 304 306
300 300 300 299 300 300 301 301 302 304 306 307 307 303 301 302 304 303 303 304 306 307
301 299 298 299 300 300 301 301 302 303 304 305 305 302 300 301 303 304 304 306 306 304
300 300 300 300 301 299 298 299 300 300 302 303 304 304 299 298 300 301 304 306 307 311
Wind_Speed
6 6 8 10 10 10 10 10 12 12 11 12 12 11 12 11 12 14 13 16 14 12
7 9 11 13 12 10 11 11 13 13 13 13 14 14 14 12 13 14 15 15 16 14
9 11 12 12 14 14 13 13 13 14 14 14 14 14 13 13 14 15 14 14 17 17
10 12 12 12 13 13 13 13 13 13 14 14 14 14 14 15 16 18 17 17 19 20
11 12 13 13 14 13 14 13 14 14 14 14 13 12 14 15 14 17 19 20 21 22
13 13 14 14 14 14 15 14 14 14 15 16 15 15 16 17 17 18 19 21 21 21
13 13 14 14 15 15 15 15 15 16 17 15 18 18 18 18 19 19 18 20 22 22
13 13 14 15 16 16 15 15 16 15 16 16 16 14 17 19 20 19 19 19 22 22
13 14 15 16 16 16 16 16 15 15 15 16 13 22 25 23 18 18 17 17 19 22
12 15 16 16 17 17 17 16 16 17 16 17 17 23 25 28 18 18 19 20 18 20
13 15 16 16 16 16 15 16 16 16 17 17 16 21 24 24 18 18 22 21 23 23
14 15 16 17 14 15 13 14 16 16 17 18 19 24 22 18 16 18 20 20 22 23
15 14 14 14 14 11 13 15 13 16 17 21 21 25 26 20 13 16 15 19 21 32
14 14 13 13 12 11 13 15 15 16 16 20 20 20 25 26 14 13 14 15 16 19
Wind_Direction
296 300 301 298 301 295 294 291 295 289 285 280 276 273 272 268 262 257 252 251 250 257
293 298 299 298 296 292 287 281 280 283 281 274 274 271 268 263 263 259 256 250 246 249
297 297 296 294 291 287 282 281 280 280 276 273 271 268 262 261 258 257 253 251 249 245
297 299 297 291 287 284 285 282 279 276 274 272 269 266 262 257 258 259 257 251 246 241
298 297 294 289 288 288 284 283 281 279 277 273 265 259 258 257 254 254 253 248 244 246
294 293 293 290 289 288 286 282 281 279 269 263 254 247 240 243 248 248 247 248 246 243
290 294 293 290 288 286 286 287 284 280 277 266 261 258 249 243 244 242 241 247 247 244
295 294 291 290 290 290 289 286 284 283 277 269 263 258 250 244 247 249 242 244 249 242
301 296 294 292 294 294 292 290 291 278 274 273 265 263 253 250 250 254 245 242 244 248
300 297 297 296 297 295 296 295 288 285 278 273 270 262 254 249 245 248 245 243 242 245
303 296 294 295 296 297 299 295 291 288 284 285 285 266 258 251 247 243 243 241 242 237
299 300 302 299 301 300 296 293 294 288 288 283 282 281 279 269 260 246 243 240 236 234
303 301 295 297 299 300 299 292 294 292 287 285 284 284 279 277 271 257 242 239 235 233
300 299 300 299 301 308 302 298 298 293 288 290 287 287 286 286 273 263 253 238 235 228